Home   Weather   Göppingen   Past weeks

Flag for Germany Past Weather in Göppingen, Baden-Württemberg, Germany — Yesterday and Last 2 Weeks

Now
19 °F

Ice fog.


Feels Like: 8 °F
Forecast: 15 / 26 °F
Wind: 10 mph from Northeast

Location: Stuttgart-Echterdingen

Current Time: Jan 25, 2017 at 2:26:02 am

Latest Report: Jan 25, 2017 at 1:50 am


Visibility: 2 mi

Pressure: 30.33 "Hg

Humidity: 86%

Dew Point: 16 °F

Location of GöppingenLocation

Past Weather in Göppingen — Graph

°F

Göppingen Temperature Yesterday

Maximum temperature yesterday: 23 °F (at 2:20 pm)
Minimum temperature yesterday: 14 °F (at 12:20 am)
Average temperature yesterday: 20 °F

High & Low Weather Summary for the Past Weeks

 TemperatureHumidityPressure
High43 °F (Jan 13, 12:20 am)100% (Jan 10, 4:50 pm)30.51 "Hg (Jan 10, 4:50 pm)
Low9 °F (Jan 22, 7:50 am)55% (Jan 20, 1:20 pm)29.33 "Hg (Jan 13, 12:20 am)
Average26 °F82%30.15 "Hg
* Reported Jan 10 1:20 am — Jan 25 1:20 am, Göppingen, Weather by CustomWeather, © 2017

Note: Actual official high and low records may vary slightly from our data, if they occured in-between our weather recording intervals... More about our weather records

Advertising

Göppingen Weather History for the Previous 24 Hours

Scroll right to see more
 ConditionsComfort  
Time TempWeatherWind HumidityBarometerVisibility
1:20 am
Wed, Jan 25
19 °FLight snow. Ice fog.9 mph93%30.33 "Hg1 mi
12:50 am19 °FLight snow. Ice fog.10 mph93%30.33 "Hg1 mi
12:20 am21 °FLight snow. Ice fog.9 mph93%30.33 "Hg2 mi
11:50 pm
Tue, Jan 24
21 °FLight snow. Ice fog.9 mph93%30.33 "Hg2 mi
11:20 pm21 °FLight snow. Ice fog.8 mph93%30.33 "Hg2 mi
10:50 pm21 °FPassing clouds.7 mph93%30.33 "Hg2 mi
10:20 pm21 °FIce fog.8 mph93%30.33 "Hg2 mi
9:50 pm23 °FLight snow. Ice fog.7 mph86%30.33 "Hg2 mi
9:20 pm23 °FLight snow. Ice fog.6 mph86%30.33 "Hg2 mi
8:50 pm23 °FLight snow. Ice fog.6 mph86%30.33 "Hg2 mi
8:20 pm23 °FLight snow. Ice fog.6 mph86%30.33 "Hg2 mi
7:50 pm23 °FLight snow. Ice fog.5 mph86%30.33 "Hg2 mi
7:20 pm23 °FLight snow. Ice fog.6 mph86%30.33 "Hg2 mi
6:50 pm23 °FLight snow. Ice fog.6 mph86%30.33 "Hg2 mi
6:20 pm23 °FLight snow. Ice fog.3 mph86%30.33 "Hg2 mi
5:50 pm23 °FLight snow. Ice fog.5 mph86%30.33 "Hg2 mi
5:20 pm23 °FLight snow. Ice fog.5 mph86%30.33 "Hg2 mi
4:50 pm23 °FSnow flurries. Ice fog.5 mph86%30.30 "Hg2 mi
4:20 pm23 °FSnow flurries. Ice fog.3 mph86%30.30 "Hg2 mi
3:50 pm23 °FSnow flurries. Ice fog.3 mph86%30.30 "Hg2 mi
3:20 pm23 °FSnow flurries. Ice fog.5 mph86%30.27 "Hg2 mi
2:50 pm23 °FIce fog.5 mph86%30.27 "Hg2 mi
2:20 pm23 °FSnow flurries. Ice fog.5 mph93%30.27 "Hg2 mi
1:50 pm21 °FSnow flurries. Ice fog.3 mph100%30.27 "Hg2 mi
1:20 pm21 °FIce fog.2 mph100%30.27 "Hg1 mi
12:50 pm21 °FLight snow. Ice fog.1 mph93%30.27 "Hg1 mi
12:20 pm21 °FLight snow. Ice fog.1 mph93%30.30 "Hg1 mi
11:50 am21 °FLight snow. Ice fog.2 mph93%30.30 "Hg1 mi
11:20 am21 °FLight snow. Ice fog.2 mph93%30.30 "Hg1 mi
10:50 am21 °FLight snow. Ice fog.2 mph93%30.30 "Hg1 mi
10:20 am19 °FHeavy mixture of precip. Ice fog.2 mph100%30.27 "Hg1 mi
9:50 am19 °FSnow flurries. Ice fog.3 mph93%30.27 "Hg1 mi
9:20 am19 °FSnow flurries. Ice fog.3 mph93%30.27 "Hg1 mi
8:50 am19 °FIce fog.2 mph93%30.27 "Hg1 mi
8:20 am19 °FIce fog.3 mph93%30.27 "Hg1 mi
7:50 am19 °FIce fog.2 mph93%30.27 "Hg1 mi
7:20 am19 °FIce fog.2 mph93%30.24 "Hg1 mi
6:50 am19 °FPassing clouds.3 mph93%30.24 "Hg1 mi
6:20 am19 °FIce fog.2 mph93%30.24 "Hg1 mi
5:50 am19 °FIce fog.2 mph93%30.24 "Hg1 mi
5:20 am18 °FIce fog.2 mph93%30.24 "Hg1 mi
4:50 am18 °FIce fog.2 mph93%30.24 "Hg1 mi
4:20 am18 °FIce fog.3 mph93%30.24 "Hg1 mi
3:50 am18 °FPassing clouds.2 mph93%30.24 "Hg1 mi
3:20 am18 °FIce fog.1 mph93%30.24 "Hg1 mi
2:50 am18 °FIce fog.1 mph93%30.24 "Hg1 mi
2:20 am16 °FIce fog.1 mph100%30.24 "Hg1 mi
Weather by CustomWeather, © 2017

See weather overviewHow to use our weather pages